Weather History for EGVN - December, 2013

Change the Weather History Date:

Friday, December 27, 2013

  Actual Average Record
Temperature  
Mean Temperature 44 °F -  
Max Temperature 49 °F 44 °F 55 °F (2007)
Min Temperature 38 °F 34 °F 23 °F (2000)
Degree Days  
Heating Degree Days 22    
Moisture  
Dew Point 39 °F    
Average Humidity 72    
Maximum Humidity 94    
Minimum Humidity 53    
Precipitation  
Precipitation 0.08 in - - ()
Sea Level Pressure  
Sea Level Pressure 29.05 in    
Wind  
Wind Speed 16 mph ()    
Max Wind Speed 25 mph    
Max Gust Speed 45 mph    
Visibility 8.6 miles    
Events Rain    
Averages and records for this station are not official NWS values.
T = Trace of Precipitation, MM = Missing Value Source: Averaged Metar Reports

Daily Weather History Graph

Daily Weather History Graph

Search for Another Location

Airport or City:

Trip Planner

Search our weather history database for the weather conditions in past years. The results will help you decide how hot, cold, wet, or windy it might be!

Date:

Astronomy

Dec. 27, 2013 Rise Set
Actual Time 8:13 AM GMT 4:02 PM GMT
Civil Twilight 7:32 AM GMT 4:42 PM GMT
Nautical Twilight 6:49 AM GMT 5:25 PM GMT
Astronomical Twilight 6:08 AM GMT 6:06 PM GMT
Moon 2:01 AM GMT (12/27) 12:27 PM GMT (12/27)
Length of Visible Light 9h 10m
Length of Day
7h 48m
Waning Crescent, 30% of the Moon is Illuminated
Dec 27
Waning Crescent
Jan 1
New
Jan 8
First Quarter
Jan 16
Full
Jan 24
Last Quarter

Hourly Weather History & Observations

Time (GMT) Temp. Windchill Dew Point Humidity Pressure Visibility Wind Dir Wind Speed Gust Speed Precip Events Conditions
12:00 AM 44 °F - 41 °F 86% 29.13 in 9 mi South 19.6 mph - - Rain Light Rain
12:50 AM 46.4 °F 38.5 °F 42.8 °F 87% 29.03 in 6.2 mi South 21.9 mph 36.8 mph N/A   Mostly Cloudy
1:00 AM 46 °F - 43 °F 87% 29.05 in 12 mi South 21.9 mph - - Rain Light Rain
1:39 AM 48.2 °F - 46.4 °F 93% 28.97 in 3.1 mi South 25.3 mph 44.9 mph N/A Rain Rain
1:42 AM 48.2 °F - 46.4 °F 93% 28.97 in 2.5 mi South 24.2 mph 39.1 mph N/A Rain Rain
1:50 AM 48.2 °F - 46.4 °F 93% 28.97 in 2.5 mi South 24.2 mph 43.7 mph N/A Rain Rain
2:00 AM 49 °F - 47 °F 89% 28.98 in 2 mi South 24.2 mph - - Rain Rain
2:43 AM 50.0 °F - 48.2 °F 94% 28.91 in 1.9 mi South 24.2 mph 35.7 mph N/A Rain Heavy Rain
2:50 AM 50.0 °F - 48.2 °F 94% 28.91 in 1.6 mi South 21.9 mph 35.7 mph N/A Rain Rain
2:59 AM 50.0 °F - 48.2 °F 94% 28.94 in 1.2 mi SSW 19.6 mph 36.8 mph N/A Rain Heavy Rain
3:00 AM 50 °F - 48 °F 91% 28.94 in 2 mi South 21.9 mph - - Rain Rain
3:21 AM 50.0 °F - 46.4 °F 87% 28.94 in 3.7 mi SW 17.3 mph 34.5 mph N/A Rain Rain
3:50 AM 50.0 °F - 42.8 °F 76% 28.94 in 6.2 mi SW 13.8 mph 27.6 mph N/A   Scattered Clouds
4:00 AM 50 °F - 43 °F 71% 28.95 in 11 mi SW 13.8 mph - - Rain Light Rain
4:50 AM 50.0 °F - 37.4 °F 62% 28.94 in 6.2 mi SW 13.8 mph 27.6 mph N/A   Partly Cloudy
5:00 AM 49 °F - 38 °F 55% 28.95 in 12 mi SW 13.8 mph - -   Scattered Clouds
5:50 AM 48.2 °F - 39.2 °F 71% 28.94 in 6.2 mi SW 19.6 mph 32.2 mph N/A   Partly Cloudy
6:00 AM 48 °F - 39 °F 62% 28.96 in 9 mi SW 19.6 mph - -   Scattered Clouds
6:50 AM 48.2 °F - 37.4 °F 66% 28.94 in 6.2 mi SW 17.3 mph 32.2 mph N/A   Partly Cloudy
7:00 AM 49 °F - 37 °F 54% 28.95 in 11 mi SW 17.3 mph - -   Scattered Clouds
7:50 AM 48.2 °F - 35.6 °F 62% 28.94 in 6.2 mi SW 16.1 mph 27.6 mph N/A   Mostly Cloudy
8:00 AM 47 °F - 36 °F 56% 28.97 in 12 mi SW 16.1 mph - -   Mostly Cloudy
8:50 AM 48.2 °F - 35.6 °F 62% 28.97 in 6.2 mi SW 16.1 mph 29.9 mph N/A   Mostly Cloudy
9:00 AM 48 °F - 36 °F 53% 28.99 in 12 mi SW 16.1 mph - -   Partly Cloudy
9:50 AM 48.2 °F - 37.4 °F 66% 29.00 in 6.2 mi SSW 18.4 mph 32.2 mph N/A   Mostly Cloudy
10:00 AM 48 °F - 37 °F 55% 29.01 in 12 mi SSW 18.4 mph - -   Partly Cloudy
10:50 AM 48.2 °F - 37.4 °F 66% 29.00 in 6.2 mi SW 16.1 mph 32.2 mph N/A   Scattered Clouds
11:00 AM 48 °F - 36 °F 54% 29.02 in 9 mi SW 16.1 mph - - Rain Light Rain Showers
11:50 AM 44.6 °F 36.6 °F 37.4 °F 76% 29.03 in 6.2 mi WSW 19.6 mph 38.0 mph N/A Rain Light Rain Showers
12:00 PM 45 °F - 38 °F 67% 29.06 in 7 mi WSW 19.6 mph - - Rain Light Rain Showers
12:50 PM 46.4 °F 39.5 °F 35.6 °F 66% 29.06 in 6.2 mi SW 17.3 mph 31.1 mph N/A   Scattered Clouds
1:00 PM 46 °F - 36 °F 58% 29.07 in 19 mi SW 17.3 mph - - Rain Light Rain Showers
1:50 PM 48.2 °F - 37.4 °F 66% 29.06 in 6.2 mi SW 15.0 mph 28.8 mph N/A   Mostly Cloudy
2:00 PM 47 °F - 36 °F 57% 29.07 in 19 mi SW 15.0 mph - -   Partly Cloudy
2:50 PM 46.4 °F 40.4 °F 35.6 °F 66% 29.06 in 6.2 mi SW 13.8 mph - N/A   Partly Cloudy
3:00 PM 46 °F - 36 °F 59% 29.09 in 22 mi SW 13.8 mph - -   Partly Cloudy
3:50 PM 46.4 °F 41.1 °F 37.4 °F 71% 29.09 in 6.2 mi SSW 11.5 mph 23.0 mph N/A   Partly Cloudy
4:00 PM 46 °F - 37 °F 62% 29.11 in 17 mi SSW 11.5 mph - -   Scattered Clouds
4:50 PM 46.4 °F 42.9 °F 37.4 °F 71% 29.12 in 6.2 mi SW 6.9 mph - N/A   Mostly Cloudy
5:00 PM 46 °F - 37 °F 61% 29.14 in 16 mi SW 6.9 mph - -   Mostly Cloudy
5:50 PM 44.6 °F 39.7 °F 35.6 °F 71% 29.12 in 6.2 mi SW 9.2 mph - N/A   Partly Cloudy
6:00 PM 45 °F - 36 °F 61% 29.15 in 19 mi SW 9.2 mph - -   Partly Cloudy
6:50 PM 44.6 °F 40.2 °F 35.6 °F 71% 29.15 in 6.2 mi WSW 8.1 mph - N/A   Partly Cloudy
7:00 PM 44 °F - 36 °F 64% 29.17 in 22 mi WSW 8.1 mph - - Rain Light Rain Showers
7:50 PM 42.8 °F 38.6 °F 35.6 °F 76% 29.18 in - SSW 6.9 mph - N/A   Clear
8:00 PM 43 °F - 35 °F 64% 29.20 in 22 mi SSW 6.9 mph - -   Scattered Clouds
8:50 PM 42.8 °F 41.1 °F 35.6 °F 76% 29.18 in - SW 3.5 mph - N/A   Clear
9:00 PM 42 °F - 36 °F 71% 29.20 in 19 mi SW 3.5 mph - -   Partly Cloudy
9:50 PM 41.0 °F 36.4 °F 35.6 °F 81% 29.18 in - SSW 6.9 mph - N/A   Clear
10:00 PM 40 °F - 35 °F 76% 29.21 in 19 mi SSW 6.9 mph - -   Scattered Clouds
10:50 PM 41.0 °F 35.8 °F 35.6 °F 81% 29.21 in - SW 8.1 mph - N/A   Clear
11:00 PM 41 °F - 35 °F 72% 29.23 in 19 mi SW 8.1 mph - -   Scattered Clouds
11:50 PM 41.0 °F 36.4 °F 35.6 °F 81% 29.21 in - SW 6.9 mph - N/A   Clear